Time,TemperatureF,DewpointF,PressureIn,WindDirection,WindDirectionDegrees,WindSpeedMPH,WindSpeedGustMPH,Humidity,HourlyPrecipIn,Conditions,Clouds,dailyrainin,SoftwareType,DateUTC
2013-10-24 00:13:00,33.0,23.0,30.21,NW,319,1.0,4.0,67,0.00,,,0.00,,2013-10-24 05:13:00,
2013-10-24 00:22:00,33.0,23.0,30.22,West,281,0.0,1.0,67,0.00,,,0.00,,2013-10-24 05:22:00,
2013-10-24 00:43:00,32.0,23.0,30.22,West,276,0.0,3.0,69,0.00,,,0.00,,2013-10-24 05:43:00,
2013-10-24 00:53:00,32.0,23.0,30.22,WSW,242,1.0,4.0,70,0.00,,,0.00,,2013-10-24 05:53:00,
2013-10-24 01:12:00,33.0,24.0,30.22,WSW,253,3.0,7.0,68,0.00,,,0.00,,2013-10-24 06:12:00,
2013-10-24 01:21:00,35.0,24.0,30.22,WNW,284,3.0,10.0,63,0.00,,,0.00,,2013-10-24 06:21:00,
2013-10-24 01:42:00,35.0,23.0,30.22,WNW,302,4.0,9.0,61,0.00,,,0.00,,2013-10-24 06:42:00,
2013-10-24 02:21:00,36.0,23.0,30.24,North,355,2.0,9.0,59,0.00,,,0.00,,2013-10-24 07:21:00,
2013-10-24 03:22:00,35.0,23.0,30.25,West,265,2.0,5.0,60,0.00,,,0.00,,2013-10-24 08:22:00,
2013-10-24 03:42:00,35.0,23.0,30.24,West,274,2.0,5.0,61,0.00,,,0.00,,2013-10-24 08:42:00,
2013-10-24 05:12:00,33.0,22.0,30.26,West,263,3.0,6.0,63,0.00,,,0.00,,2013-10-24 10:12:00,
2013-10-24 05:23:00,35.0,24.0,30.26,West,277,3.0,9.0,64,0.00,,,0.00,,2013-10-24 10:23:00,
2013-10-24 05:43:00,35.0,24.0,30.27,West,275,1.0,6.0,64,0.00,,,0.00,,2013-10-24 10:43:00,
2013-10-24 05:53:00,34.0,23.0,30.27,West,261,1.0,4.0,64,0.00,,,0.00,,2013-10-24 10:53:00,
2013-10-24 06:12:00,34.0,23.0,30.27,WSW,258,1.0,3.0,65,0.00,,,0.00,,2013-10-24 11:12:00,
2013-10-24 06:22:00,33.0,23.0,30.28,WSW,257,1.0,4.0,66,0.00,,,0.00,,2013-10-24 11:22:00,
2013-10-24 06:42:00,33.0,23.0,30.28,WSW,252,2.0,5.0,65,0.00,,,0.00,,2013-10-24 11:42:00,
2013-10-24 06:53:00,33.0,23.0,30.28,WSW,250,2.0,4.0,66,0.00,,,0.00,,2013-10-24 11:53:00,
2013-10-24 07:12:00,32.0,22.0,30.29,WSW,240,3.0,5.0,67,0.00,,,0.00,,2013-10-24 12:12:00,
2013-10-24 13:12:00,38.0,23.0,30.35,WNW,301,5.0,14.0,55,0.00,,,0.01,,2013-10-24 18:12:00,
2013-10-24 13:42:00,38.0,23.0,30.35,WSW,240,7.0,15.0,54,0.00,,,0.01,,2013-10-24 18:42:00,
2013-10-24 19:12:00,34.0,19.0,30.35,WSW,247,2.0,5.0,54,0.00,,,0.01,,2013-10-25 00:12:00,
2013-10-24 19:52:00,33.0,19.0,30.35,WSW,242,3.0,5.0,57,0.00,,,0.01,,2013-10-25 00:52:00,
2013-10-24 21:23:00,31.0,20.0,30.35,WSW,246,1.0,5.0,62,0.00,,,0.01,,2013-10-25 02:23:00,
2013-10-24 21:52:00,30.0,19.0,30.35,WSW,246,1.0,3.0,64,0.00,,,0.01,,2013-10-25 02:52:00,
2013-10-24 22:12:00,30.0,19.0,30.35,WSW,245,2.0,5.0,63,0.00,,,0.01,,2013-10-25 03:12:00,
2013-10-24 22:23:00,30.0,19.0,30.35,WSW,245,2.0,4.0,63,0.00,,,0.01,,2013-10-25 03:23:00,
2013-10-24 22:44:00,31.0,20.0,30.36,WSW,245,2.0,3.0,62,0.00,,,0.01,,2013-10-25 03:44:00,
2013-10-24 22:54:00,30.0,19.0,30.36,WSW,245,1.0,3.0,64,0.00,,,0.01,,2013-10-25 03:54:00,
2013-10-24 23:14:00,30.0,19.0,30.35,WSW,245,2.0,3.0,64,0.00,,,0.01,,2013-10-25 04:14:00,
2013-10-24 23:24:00,30.0,19.0,30.35,WSW,245,1.0,4.0,64,0.00,,,0.01,,2013-10-25 04:24:00,
2013-10-24 23:34:00,30.0,19.0,30.35,WSW,245,1.0,4.0,64,0.00,,,0.01,,2013-10-25 04:34:00,
2013-10-24 23:44:00,30.0,19.0,30.35,WSW,245,1.0,4.0,64,0.00,,,0.01,,2013-10-25 04:44:00,
2013-10-24 23:54:00,30.0,19.0,30.35,WSW,245,1.0,4.0,64,0.00,,,0.01,,2013-10-25 04:54:00,